Wind_Speed
10 10 11 11 10 10 10 8 8 9 8 7 6 5 5 6 6 5 5 5 5 6 7 7 7 7 7 6 6 5 5 4 3 2 3 4 4 5 7 7 7 7 7 8
12 12 12 12 12 11 11 10 10 10 10 9 8 8 8 8 8 8 8 8 7 7 8 8 7 7 7 7 6 6 6 5 5 3 3 4 4 5 7 7 7 8 8 8
13 14 14 13 12 11 11 11 12 13 12 12 11 11 11 10 10 9 10 10 10 9 9 8 7 7 8 8 7 7 7 7 6 6 4 4 5 6 7 7 8 9 9 9
15 15 14 13 12 11 13 13 13 14 13 13 12 12 13 12 11 11 11 12 12 11 11 10 9 9 9 9 8 8 8 7 7 7 7 6 6 6 7 8 9 10 10 10
16 16 15 15 14 13 14 14 15 15 15 15 15 14 14 14 13 12 12 12 12 12 12 11 10 10 10 9 9 9 9 8 7 8 8 7 7 7 7 8 8 9 9 10
17 16 16 16 16 15 15 15 15 15 15 16 15 15 15 16 14 13 13 13 13 14 14 13 12 11 11 11 10 10 9 8 8 8 9 9 8 9 8 8 9 9 10 11
17 17 18 17 17 17 16 15 14 14 14 16 16 16 17 16 15 14 14 14 14 14 15 15 13 12 11 11 11 11 10 9 9 9 10 10 10 10 9 9 10 11 12 13
18 19 19 18 18 18 17 16 15 15 14 15 17 16 16 15 15 15 15 15 15 14 14 15 15 14 12 12 12 12 11 11 10 10 10 11 11 11 11 11 12 13 13 14
19 20 20 19 19 19 19 18 17 17 16 15 16 16 15 14 14 14 15 15 16 14 14 14 14 14 14 13 13 12 12 12 12 13 13 12 12 12 13 14 14 14 14 15
21 21 21 20 20 21 20 19 19 17 16 15 16 16 15 15 15 15 15 15 15 15 14 15 15 14 14 14 15 15 14 14 15 15 15 14 14 14 15 16 17 17 16 16
22 21 21 22 21 22 22 21 20 19 18 16 15 16 16 16 15 15 15 15 15 14 14 14 15 15 15 16 16 16 16 17 17 17 17 17 17 17 18 18 19 19 19 19
22 21 21 22 23 23 23 22 21 20 20 19 17 17 18 16 16 16 16 16 16 16 15 15 15 16 16 17 17 18 18 19 19 19 19 19 20 20 20 20 20 21 21 21
24 23 22 21 23 24 23 23 23 22 21 21 19 18 19 17 17 17 17 17 17 17 17 16 16 17 18 18 19 19 20 20 21 21 21 21 21 22 22 22 22 23 23 24
25 24 23 21 22 24 24 23 23 22 22 22 22 21 21 20 19 18 18 18 18 17 17 17 17 18 19 20 20 20 21 21 22 22 23 23 23 24 24 25 25 26 26 26
27 27 26 26 26 26 26 25 25 25 25 25 25 24 24 23 22 20 20 19 20 19 19 19 19 20 20 21 22 22 23 23 23 24 25 25 25 26 26 26 27 27 27 27
29 29 28 28 28 28 28 28 28 27 28 28 28 27 27 25 25 23 22 21 22 22 22 22 22 23 23 24 24 24 24 25 25 25 25 26 26 27 27 28 28 28 28 28
30 30 29 28 28 29 30 29 29 29 29 29 29 29 28 27 26 25 25 24 23 23 24 25 25 26 26 27 27 26 27 27 27 27 27 27 28 28 28 29 29 30 30 30
31 31 30 29 29 31 29 29 29 30 30 30 30 30 29 28 28 27 26 26 26 26 26 27 27 28 28 29 29 28 28 29 29 29 28 29 29 30 31 31 31 31 31 31
31 31 31 30 30 31 31 30 30 30 31 30 30 29 29 28 28 28 28 27 27 27 28 28 28 29 29 30 30 30 30 30 30 30 30 30 31 32 32 32 32 32 32 32
30 31 31 32 31 30 31 31 30 30 31 30 30 30 29 29 29 29 29 29 29 29 29 29 30 30 30 30 31 32 32 31 32 32 32 33 33 33 33 33 33 33 33 33
29 30 31 31 32 31 33 32 31 30 30 30 30 30 30 30 31 30 30 30 30 30 30 30 31 31 31 31 32 33 33 33 34 34 34 34 34 34 34 34 33 33 33 34
29 30 30 31 31 32 34 32 31 31 31 30 30 30 30 31 31 31 31 31 31 31 31 31 32 32 33 33 34 34 34 34 34 34 34 34 34 34 34 34 34 34 34 34
31 31 31 31 31 32 32 31 31 31 31 30 30 30 30 30 30 31 31 31 32 32 32 32 33 33 34 35 35 35 34 35 34 33 33 33 33 33 33 33 33 33 33 33
31 31 31 31 32 32 32 31 31 31 31 30 30 30 30 30 30 31 31 31 32 32 32 33 33 33 34 35 35 35 35 35 35 34 33 33 33 32 32 32 32 33 33 33
32 31 31 31 31 31 31 31 31 31 31 30 29 29 29 29 29 30 31 31 31 31 32 32 33 33 33 34 34 35 35 35 35 34 33 33 32 32 32 32 31 32 32 32
31 30 30 30 30 31 31 31 31 31 31 30 29 29 28 28 29 29 30 31 31 31 32 32 33 34 33 33 33 33 33 34 33 33 33 33 32 31 31 31 31 31 31 31
Wind_Direction
222 224 228 230 230 235 240 243 252 261 265 272 277 279 287 294 296 304 313 318 336 339 342 343 342 343 347 348 345 340 331 324 308 268 230 227 222 222 228 229 234 240 241 237
229 231 233 233 236 244 249 250 256 263 267 272 275 278 281 285 281 281 291 299 308 313 320 326 328 328 331 334 333 327 322 316 300 285 247 229 228 234 240 245 248 250 252 246
229 233 237 238 242 246 250 252 254 262 271 276 276 279 280 278 275 276 281 287 295 299 302 308 314 313 314 319 322 319 314 305 292 281 260 250 240 237 242 248 254 258 257 249
229 231 236 240 245 248 252 255 258 264 270 273 275 274 278 275 273 273 275 279 287 291 293 294 298 301 302 305 307 309 308 300 289 277 270 257 257 255 256 260 264 266 261 258
236 236 239 243 248 249 249 256 262 266 269 270 273 272 274 273 271 268 270 273 278 282 286 285 287 288 291 292 298 303 303 294 287 280 270 259 262 261 267 269 271 267 263 264
239 241 243 246 250 253 255 259 264 267 269 270 271 272 272 274 270 267 269 273 275 275 277 277 278 281 286 289 292 298 299 288 291 289 284 275 267 268 270 273 275 275 275 273
242 244 247 250 252 255 256 259 266 271 271 273 273 272 273 274 268 266 268 270 274 274 272 270 270 275 281 284 287 290 295 290 292 292 285 280 274 272 273 276 277 279 280 277
245 249 252 251 250 253 254 253 256 262 268 275 277 274 276 273 269 268 269 269 271 271 270 266 263 266 273 279 283 283 287 288 288 290 287 282 280 276 277 281 281 281 280 279
244 249 252 251 250 250 253 253 255 259 265 266 270 276 277 273 273 270 271 272 273 271 269 262 260 264 268 271 275 279 283 287 287 289 287 289 284 285 285 282 283 283 281 280
245 250 253 252 251 250 252 255 256 257 262 266 272 276 274 274 272 272 273 271 273 272 268 262 260 263 267 270 272 275 282 286 285 285 284 283 285 288 290 287 283 282 283 281
245 249 253 252 250 252 253 253 253 254 255 262 268 271 273 273 271 270 271 270 267 266 265 264 262 263 266 269 271 274 278 281 282 283 282 281 282 286 288 287 284 284 282 281
243 245 249 253 253 252 253 252 253 254 258 260 260 267 271 269 270 267 266 266 264 262 262 262 260 261 265 268 270 273 277 279 279 279 279 281 281 283 284 285 284 283 282 282
243 244 248 254 257 254 252 253 252 252 255 258 260 266 268 267 268 266 264 265 266 263 262 262 260 260 263 265 269 273 277 278 276 277 280 280 281 281 282 284 285 285 284 284
244 245 244 246 251 256 255 253 252 252 253 257 259 260 264 265 268 268 266 263 263 264 264 262 261 262 262 265 268 273 275 276 276 277 278 279 281 281 282 283 283 285 286 286
247 247 248 246 249 252 253 252 252 251 252 254 258 260 262 264 266 267 266 263 262 262 263 262 263 263 264 266 269 272 274 275 276 277 278 280 281 281 282 283 283 284 285 285
247 248 251 252 252 253 252 252 253 254 256 257 258 260 262 264 264 263 263 263 263 264 265 264 264 263 265 267 269 272 274 276 277 278 278 279 281 282 282 283 283 284 285 285
247 248 250 253 253 255 255 255 256 257 258 259 259 259 261 262 264 264 264 264 264 265 265 265 265 266 266 267 270 272 273 275 276 277 278 279 280 281 283 283 283 284 284 284
248 248 250 251 253 255 257 257 257 257 259 259 259 260 261 262 262 262 263 264 264 265 266 266 266 268 268 269 271 272 273 274 275 277 278 277 278 280 282 283 283 283 283 282
248 249 251 253 256 258 258 259 258 258 258 259 259 260 260 262 263 262 262 262 264 266 266 266 267 268 269 271 272 273 274 275 276 277 277 277 278 280 281 282 282 283 282 280
248 248 251 253 254 256 258 259 259 259 259 257 258 259 260 261 262 262 262 262 264 266 266 267 268 268 269 270 271 272 274 275 275 276 277 277 278 279 280 281 281 282 281 279
249 249 250 252 255 257 257 260 260 259 259 259 260 261 260 261 262 262 262 262 263 265 266 267 267 268 269 270 271 272 274 275 275 276 277 278 279 280 280 280 281 281 280 280
248 250 251 252 256 257 258 261 259 260 260 261 261 261 262 262 262 261 261 261 263 265 266 267 268 269 270 271 271 273 274 275 276 277 278 279 279 280 280 279 279 279 279 279
248 249 251 253 255 258 260 261 260 260 261 261 261 261 262 262 261 261 260 261 263 266 267 268 269 270 271 271 271 271 272 274 276 277 278 278 278 279 279 278 279 280 280 279
249 249 252 254 256 259 260 260 261 261 261 260 261 261 261 261 261 261 261 262 264 266 267 268 270 272 273 273 273 273 273 274 276 277 277 277 277 277 277 277 279 281 281 279
252 252 253 255 258 260 260 260 260 261 260 260 259 259 260 260 260 260 260 262 264 265 267 269 270 272 274 275 275 275 275 276 276 277 278 277 276 277 278 279 280 280 281 281
252 254 255 255 257 258 259 260 260 260 258 259 259 258 259 259 259 259 260 262 264 266 268 270 271 272 274 275 275 277 278 278 278 278 278 277 277 276 278 279 279 278 279 278
Height
5911 5913 5914 5916 5917 5918 5919 5920 5920 5920 5919 5919 5919 5919 5918 5917 5916 5915 5914 5913 5912 5911 5910 5908 5907 5905 5904 5902 5901 5900 5898 5898 5897 5897 5896 5896 5896 5897 5897 5897 5898 5898 5898 5898
5909 5911 5912 5912 5914 5915 5916 5917 5918 5918 5917 5917 5917 5917 5917 5916 5915 5914 5913 5913 5912 5911 5909 5908 5906 5905 5904 5902 5901 5899 5898 5897 5897 5896 5896 5896 5896 5896 5896 5896 5896 5896 5897 5897
5906 5908 5908 5910 5911 5912 5914 5915 5915 5915 5915 5915 5915 5915 5915 5914 5913 5913 5912 5911 5910 5909 5908 5907 5906 5904 5903 5902 5900 5899 5898 5897 5896 5895 5895 5895 5895 5895 5896 5895 5895 5895 5895 5895
5902 5904 5905 5907 5908 5909 5911 5911 5912 5912 5912 5913 5913 5914 5913 5911 5911 5910 5910 5909 5908 5907 5906 5905 5904 5903 5902 5901 5899 5898 5896 5895 5894 5894 5894 5894 5894 5894 5894 5894 5894 5894 5893 5893
5899 5901 5902 5903 5905 5906 5907 5908 5908 5909 5909 5910 5910 5910 5911 5908 5908 5908 5907 5907 5906 5905 5904 5903 5902 5901 5900 5899 5898 5896 5894 5893 5893 5893 5893 5892 5893 5893 5892 5892 5892 5892 5892 5892
5896 5897 5898 5900 5901 5902 5903 5904 5905 5905 5906 5907 5906 5907 5907 5905 5905 5904 5904 5904 5903 5902 5901 5901 5900 5899 5898 5897 5896 5895 5893 5892 5891 5891 5891 5891 5891 5891 5891 5891 5890 5890 5890 5890
5892 5893 5894 5896 5897 5898 5900 5902 5903 5903 5904 5904 5903 5902 5902 5901 5901 5901 5901 5900 5900 5899 5898 5898 5897 5897 5896 5895 5894 5893 5892 5892 5891 5890 5890 5890 5889 5889 5889 5888 5888 5888 5887 5887
5888 5890 5890 5892 5893 5894 5895 5898 5901 5902 5902 5902 5898 5897 5898 5897 5896 5896 5896 5896 5896 5895 5894 5894 5894 5894 5894 5893 5892 5892 5891 5890 5890 5889 5888 5888 5887 5887 5887 5886 5886 5885 5885 5884
5885 5886 5886 5887 5888 5890 5891 5892 5895 5896 5896 5896 5896 5894 5893 5893 5892 5892 5892 5892 5892 5891 5891 5891 5891 5891 5891 5890 5890 5889 5889 5888 5888 5887 5887 5886 5885 5885 5884 5884 5883 5882 5881 5881
5879 5880 5881 5882 5883 5884 5886 5887 5889 5891 5891 5892 5892 5890 5890 5889 5888 5889 5888 5888 5888 5887 5887 5887 5887 5887 5887 5887 5887 5886 5886 5886 5885 5884 5884 5883 5883 5882 5881 5880 5879 5879 5878 5877
5873 5875 5876 5876 5878 5879 5881 5882 5883 5885 5886 5887 5889 5890 5885 5884 5884 5884 5884 5884 5883 5883 5883 5883 5883 5884 5884 5883 5883 5883 5883 5883 5882 5881 5880 5880 5879 5879 5878 5877 5876 5875 5874 5873
5866 5869 5870 5871 5872 5873 5874 5876 5877 5879 5879 5880 5883 5886 5880 5880 5880 5880 5879 5879 5879 5879 5879 5879 5879 5879 5879 5879 5879 5879 5879 5878 5878 5877 5876 5876 5875 5874 5874 5873 5872 5871 5870 5868
5860 5863 5865 5866 5868 5867 5868 5869 5871 5873 5874 5875 5877 5880 5875 5875 5875 5874 5875 5875 5875 5875 5875 5875 5875 5875 5875 5875 5875 5875 5874 5874 5873 5872 5872 5871 5870 5869 5869 5868 5866 5865 5864 5863
5853 5856 5859 5862 5862 5860 5861 5863 5864 5866 5868 5869 5870 5871 5870 5869 5870 5870 5870 5870 5870 5870 5870 5870 5871 5871 5871 5870 5870 5870 5869 5868 5868 5867 5866 5865 5864 5864 5862 5861 5860 5859 5858 5857
5846 5848 5850 5852 5853 5854 5855 5856 5857 5859 5860 5862 5863 5863 5863 5863 5864 5864 5864 5864 5865 5865 5865 5865 5865 5865 5865 5865 5865 5864 5863 5863 5862 5861 5860 5859 5858 5857 5856 5855 5853 5852 5851 5849
5838 5840 5842 5844 5845 5846 5847 5848 5850 5851 5852 5853 5855 5856 5856 5856 5857 5857 5858 5858 5858 5859 5859 5859 5859 5859 5859 5859 5858 5857 5857 5856 5855 5854 5853 5852 5851 5849 5848 5847 5846 5844 5843 5841
5830 5832 5834 5836 5837 5837 5839 5841 5842 5843 5844 5845 5846 5848 5848 5848 5849 5850 5851 5851 5852 5852 5852 5852 5852 5852 5852 5852 5851 5850 5850 5849 5848 5847 5846 5845 5843 5842 5841 5839 5838 5836 5834 5833
5822 5824 5826 5828 5828 5829 5834 5832 5833 5834 5835 5836 5837 5838 5839 5840 5841 5842 5843 5843 5844 5844 5844 5844 5844 5844 5844 5844 5843 5843 5842 5841 5840 5839 5838 5837 5836 5834 5833 5831 5829 5827 5826 5824
5813 5815 5817 5819 5819 5821 5823 5823 5824 5825 5826 5828 5829 5830 5831 5832 5832 5833 5834 5835 5836 5836 5836 5836 5836 5836 5836 5836 5835 5834 5833 5833 5832 5831 5830 5829 5827 5826 5824 5822 5820 5818 5816 5815
5804 5806 5808 5810 5811 5813 5815 5813 5815 5817 5817 5819 5820 5821 5822 5823 5824 5825 5825 5826 5827 5828 5828 5828 5828 5828 5828 5827 5826 5825 5825 5824 5823 5822 5821 5819 5818 5817 5815 5813 5811 5809 5807 5805
5795 5796 5798 5800 5801 5804 5803 5804 5806 5809 5810 5810 5811 5812 5813 5814 5815 5816 5817 5817 5818 5819 5819 5819 5819 5819 5819 5818 5817 5816 5815 5815 5813 5812 5811 5810 5808 5807 5805 5803 5801 5800 5798 5796
5786 5788 5789 5791 5793 5796 5793 5795 5797 5798 5799 5800 5801 5803 5804 5805 5806 5806 5807 5808 5808 5809 5809 5810 5810 5809 5809 5809 5808 5807 5806 5805 5804 5802 5801 5799 5798 5796 5795 5793 5791 5790 5788 5786
5777 5779 5780 5782 5784 5784 5784 5786 5787 5788 5790 5791 5792 5794 5795 5795 5796 5797 5798 5798 5799 5799 5800 5800 5800 5800 5799 5799 5798 5797 5796 5794 5793 5792 5791 5789 5788 5786 5784 5783 5781 5780 5778 5776
5767 5769 5771 5772 5773 5774 5775 5776 5777 5779 5780 5782 5783 5784 5785 5786 5787 5787 5788 5789 5790 5790 5790 5790 5790 5790 5789 5788 5787 5786 5785 5784 5783 5781 5780 5779 5778 5776 5774 5772 5771 5769 5768 5766
5758 5760 5761 5763 5764 5765 5766 5767 5768 5769 5771 5772 5773 5774 5775 5776 5777 5778 5779 5779 5780 5780 5780 5780 5780 5780 5779 5778 5777 5776 5775 5774 5772 5770 5769 5768 5767 5766 5764 5763 5761 5760 5758 5757
5748 5750 5752 5753 5755 5756 5757 5758 5759 5760 5761 5763 5764 5765 5766 5767 5768 5769 5769 5770 5770 5771 5770 5770 5770 5769 5768 5768 5767 5766 5765 5764 5762 5761 5759 5758 5757 5756 5755 5753 5752 5750 5749 5747